sat.trackr.live / text

‹ back to catalog

STARLINK-5086

NORAD 54856 · 2022-177AN

PAYLOAD ACTIVE UNKNOWN

§ Identity

Operator
Country
US
Launch date
2022-12-28
Launch site
AFETR
Launch vehicle
Mass (kg)
RCS (m²)

Purposes: comms

External: N2YO · Heavens-Above · Gunter

§ Orbital elements

Epoch: 2026-09-20T21:35:51.842976Z

Period
94.27 min
Inclination
43.0025°
Eccentricity
0.0001308
Mean motion
15.27573771 rev/d
Perigee alt
482.2 km
Apogee alt
484.0 km
Semi-major
6,861.2 km
B*
1.5466e-5
RAAN
99.2888°
Arg perigee
266.7905°
Mean anomaly
93.2797°
Rev number
20,694

§ Raw data

STARLINK-50861 54856U 22177AN  26263.89990559  .00000163  00000+0  15466-4 0  99952 54856  43.0025  99.2888 0001308 266.7905  93.2797 15.27573771206948

JSON: /api/v1/satellites/54856 · /tle

For live sub-satellite position, see the globe view (requires WebGL).

§ Visibility from observer

Set your observer location to see the next 7 days of passes ≥ 10°. The values pass through the URL so the page stays shareable.

No JS? Fill the form by hand. The geolocation button needs JavaScript.